THORAD AGENA D DEB, 4161

Orbit data source: Space-Track

THORAD AGENA D DEB, 4161 is space debris in LEO originally from a launch on Tue, 30 Sep 1969 UTC launched from the Air Force Western Test Range (AFWTR). Debris objects in space refer to the collection of defunct objects orbiting the Earth. Examples of debris include non-operational satellites, rocket bodies, and fragments generated from explosions, collisions, or faulty payload assembly.

Loading next visibility...
Identifier
4161, 1969-082AD
Orbit
LEO
Country
Flag of USUS
Related business
Manufacturer
Unknown
Mission
Spacecraft
Bus & Motor
Unknown
Mass
Unknown
Launch date (UTC)
1969-09-30 (57 years ago)
Launch vehicle
Unknown
Launch site
Air Force Western Test Range (AFWTR)
Object type
Payload
Rocket body
Debris
Shape & HBR
Unknown shape, 0.2 m
Radar Cross Section
Small (<0.1 m²)

Expand to show TLE details & history
Last TLE update: 12 hours ago

TLE from 12 hours ago
0 THORAD AGENA D DEB
1 04161U 69082AD  26093.89820708  .00000088  00000-0  95248-4 0  9997
2 04161  70.0223  10.7965 0059632  22.0123 338.3525 13.99402580884315
Epoch: 2026-04-03T21:33Z
TLE epoch observation values (Epoch: 2026-04-03T21:33:25.091Z)
Latitude
-0.00006°
Longitude
-144.7838°
Altitude
857.895 km
Speed
7.444 km/s
True Right ascension
00h 43m 11s
True Declination
0° 00' 00"
Sunlit
Object was in daylight at epoch
Visualization orbit readout
Latitude
Unknown
Longitude
Unknown
Altitude
Unknown
Speed
Unknown
Apparent Right ascension
Unknown
Apparent Declination
Unknown
Sunlit
N/A
Visualization observer readout
Local Sidereal Time
15:14:22
Azimuth
Unknown
Elevation
Unknown
Doppler factor
Unknown
Orbital elements
Apogee altitude
937.267 km
Perigee altitude
850.538 km
Semi-major axis
7,272.039 km
Eccentricity
0.00596
Inclination
70.0223°
RAAN
10.7965°
Arg. of periapsis
22.0123°
True anomaly
338.09866°
Mean anomaly
338.3525°
Eccentric anomaly
338.22576°
Mean motion
3.49993 °/min
Orbital period
102.86 mins
BSTAR
0.000095248
Loading maneuver chart data...
Computing Atmospheric mass density...

Documentation

Showing up to 5 results
|